Вернуться в каталог

DELTA 1 DEB

АктивенLEO
NORAD 10824·DEBRIS·🇺🇸 United States

Запущен Jul 29, 1976 с Vandenberg Space Force Base

Loading…

Ближайшие Пролёты (ближайшие 24 часа)

TLE

СвежийSource: Space-Track

Эпоха: Sep 14, 2026, 13:18 UTC

1 10824U 76077BU  26257.55484525  .00011758  00000-0  66886-2 0  9990
2 10824 101.9400 178.7208 0017619 230.4543 305.6074 14.09949034393430

Отслеживайте DELTA 1 DEB в реальном времени с AllMySat

Download on the App Store